Weather Roundup
Issued by NWS Chicago, IL

Home | Current Version | Previous Version | Text Only | Print | Product List | Glossary On
Versions: 1 2 3 4 5 6 7 8 9 10 11 12 13 14 15 16 17 18 19 20 21 22 23 24 25 26 27 28 29 30 31 32 33 34 35 36 37 38 39 40 41 42 43 44 45 46 47 48 49 50
000
NZUS59 KLOT 242121
HRRLOT

CHICAGO AREA WEATHER ROUNDUP
NATIONAL WEATHER SERVICE CHICAGO/ROMEOVILLE IL
400 PM CDT SUN MAY 24 2015

NOTE: "FAIR" INDICATES FEW OR NO CLOUDS BELOW 12,000 FEET WITH NO
SIGNIFICANT WEATHER AND/OR OBSTRUCTIONS TO VISIBILITY.

* THESE STATIONS ARE NOT UNDER NWS QUALITY CONTROL. THEY ALSO MAY NOT
  REPORT WEATHER SUCH AS PRECIPITATION OR FOG.

ILZ005-006-012>014-019>023-242200-
NORTHEAST ILLINOIS

CITY           SKY/WX    TMP DP  RH WIND       PRES   REMARKS
OHARE          LGT RAIN  69  55  60 NE7       30.00F
MIDWAY         LGT RAIN  70  57  63 E10       29.99F
AURORA         LGT RAIN  69  63  81 E9        30.00F
LANSING*       RAIN      78  58  50 S16G23    30.00F
JOLIET*        RAIN      70  69  96 W3G12     30.00R
WAUKEGAN       LGT RAIN  57  50  77 E12       30.02F
DUPAGE AIRPORT TSTM      67  61  81 E5        30.01R
WHEELING       RAIN      64  53  67 NE7       30.02F
KANKAKEE*      PTSUNNY   82  64  56 S16G28    29.99F HX  83
MORRIS*        CLOUDY    71  68  92 SE7       29.97F
LEWIS AIRPORT* TSTM      69  65  87 W15G29    30.02R
NORTHERLY IS     N/A     59  50  72 NE2         N/A
$$

WIZ051-052-058>065-066-070>072-242200-
SOUTHEAST WISCONSIN

CITY           SKY/WX    TMP DP  RH WIND       PRES   REMARKS
MILWAUKEE      CLOUDY    53  47  79 E10       30.05F
KENOSHA*       LGT RAIN  58  52  80 E13       30.04F
RACINE*        LGT RAIN  56  48  74 E12       30.06F
BURLINGTON     RAIN      57  52  82 E7        30.05R
WAUKESHA       LGT RAIN  57  52  82 E12       30.06F FOG
WEST BEND      RAIN      59  54  82 E9        30.06F
$$

INZ001>003-010>013-019-020-242200-
NORTHWEST INDIANA

CITY           SKY/WX    TMP DP  RH WIND       PRES   REMARKS
GARY*          RAIN      81  59  47 SW10      29.99F HX  81
MICHIGAN CITY* NOT AVBL
RENSSELAER*    NOT AVBL
VALPARAISO     CLOUDY    82  56  40 S15G28    30.01F HX  82
$$

LMZ740>746-242200-
SOUTHERN LAKE MICHIGAN

STATION/POSITION TIME  SKY/WX   TEMP WIND        PRES    VSBY
                                AIR  DIR/SP/G
                 (UTC)          (F)  (DEG/KT/KT) (MB)    (MI)
HARRISON CRIB    2100            57   80/ 18/ 21   N/A
BURNHAM HARBOR   2100            59   70/ 10/ 10   N/A
CALUMET HARBOR   2100            61   70/  6/ 10   N/A
BURNS HARBOR     2000            81  150/  9/ 16 1017.3F
MICHIGAN CITY    2100            80  120/ 14/ 16   N/A
$$

ABBREVIATIONS USED IN REMARKS
   TC - TEMPERATURE IN CELSIUS
  WCI - WIND CHILL INDEX
   HX - HEAT INDEX
  VSB - VISIBILITY
$$



USA.gov is the U.S. government's official web portal to all federal, state and local government web resources and services.